Weather History for Stevens Point, WI

Change the Weather History Date:

Monday, August 25, 2014

  Actual Average Record
Temperature  
Mean Temperature 74 °F -  
Max Temperature 83 °F 76 °F 101 °F (1948)
Min Temperature 64 °F 56 °F 36 °F (1958)
Cooling Degree Days 8    
Growing Degree Days 24 (Base 50)    
Moisture  
Dew Point 67 °F    
Average Humidity 83    
Maximum Humidity 98    
Minimum Humidity 62    
Precipitation  
Precipitation 0.59 in - - ()
Sea Level Pressure  
Sea Level Pressure 29.97 in    
Wind  
Wind Speed 6 mph (SSW)    
Max Wind Speed 16 mph    
Max Gust Speed 22 mph    
Visibility 9 miles    
Events Rain , Thunderstorm    
Averages and records for this station are not official NWS values.
T = Trace of Precipitation, MM = Missing Value Source: NWS Daily Summary

Daily Weather History Graph

Daily Weather History Graph

Search for Another Location

Airport:

Trip Planner

Search our weather history database for the weather conditions in past years. The results will help you decide how hot, cold, wet, or windy it might be!

Date:

Astronomy

Aug. 25, 2014 Rise Set
Actual Time 6:12 AM CDT 7:46 PM CDT
Civil Twilight 5:41 AM CDT 8:17 PM CDT
Nautical Twilight 5:04 AM CDT 8:54 PM CDT
Astronomical Twilight 4:24 AM CDT 9:34 PM CDT
Moon 6:20 AM CDT 7:33 PM CDT
Length of Visible Light 14h 35m
Length of Day
13h 34m
New Moon, 0% of the Moon is Illuminated
Aug 25
New Moon
Sep 2
First Quarter
Sep 8
Full
Sep 15
Last Quarter
Sep 24
New

Hourly Weather History & Observations

Time (CDT) Temp. Heat Index Dew Point Humidity Pressure Visibility Wind Dir Wind Speed Gust Speed Precip Events Conditions
12:15 AM 69.8 °F - 68.0 °F 94% 29.96 in 5.0 mi SE 6.9 mph - N/A   Overcast
12:35 AM 69.8 °F - 68.2 °F 95% 29.96 in 5.0 mi SE 8.1 mph - N/A   Overcast
12:55 AM 70.0 °F - 68.4 °F 95% 29.97 in 5.0 mi SSE 4.6 mph - N/A   Overcast
1:15 AM 70.3 °F - 68.5 °F 94% 29.97 in 5.0 mi SE 4.6 mph - N/A   Overcast
1:35 AM 70.7 °F - 68.9 °F 94% 29.96 in 5.0 mi SSE 5.8 mph - N/A   Overcast
1:55 AM 70.7 °F - 68.9 °F 94% 29.95 in 5.0 mi SSE 8.1 mph - N/A   Overcast
2:15 AM 70.7 °F - 69.1 °F 95% 29.96 in 5.0 mi South 4.6 mph - N/A   Overcast
2:35 AM 70.9 °F - 69.4 °F 95% 29.96 in 4.0 mi SSE 4.6 mph - N/A   Overcast
2:55 AM 71.1 °F - 70.0 °F 96% 29.97 in 4.0 mi South 5.8 mph - N/A Thunderstorm Overcast
3:15 AM 71.2 °F - 70.2 °F 96% 29.95 in 4.0 mi SE 4.6 mph - N/A   Overcast
3:35 AM 71.2 °F - 70.3 °F 97% 29.94 in 3.0 mi SSE 4.6 mph - N/A   Overcast
3:55 AM 71.2 °F - 70.3 °F 97% 29.94 in 3.0 mi ENE 4.6 mph - N/A Rain Light Rain
4:15 AM 69.1 °F - 65.3 °F 88% 29.95 in 10.0 mi North 16.1 mph 21.9 mph N/A Rain Light Rain
4:35 AM 66.2 °F - 64.8 °F 95% 29.97 in 5.0 mi North 6.9 mph - 0.03 in Rain , Thunderstorm Thunderstorms and Rain
4:55 AM 67.1 °F - 64.4 °F 91% 30.01 in 2.0 mi Calm Calm - 0.39 in Rain , Thunderstorm Heavy Thunderstorms and Rain
5:15 AM 65.8 °F - 64.8 °F 96% 29.96 in 10.0 mi ENE 6.9 mph - 0.01 in Rain , Thunderstorm Light Thunderstorms and Rain
5:35 AM 65.7 °F - 63.7 °F 93% 29.95 in 10.0 mi ENE 11.5 mph - 0.01 in Rain Light Rain
5:55 AM 65.3 °F - 63.3 °F 93% 29.97 in 10.0 mi ESE 3.5 mph - 0.01 in Thunderstorm Unknown
6:15 AM 65.1 °F - 63.5 °F 94% 30.00 in 10.0 mi SSW 3.5 mph - N/A   Mostly Cloudy
6:35 AM 65.3 °F - 64.0 °F 96% 30.03 in 10.0 mi South 9.2 mph - 0.01 in Rain Light Rain
6:55 AM 64.9 °F - 64.0 °F 97% 30.03 in 7.0 mi SW 3.5 mph - 0.10 in Rain Rain
7:15 AM 64.9 °F - 64.0 °F 97% 30.03 in 4.0 mi Calm Calm - 0.04 in Rain Rain
7:35 AM 64.4 °F - 63.7 °F 98% 29.98 in 7.0 mi East 10.4 mph - 0.09 in Rain , Thunderstorm Rain
7:55 AM 64.6 °F - 63.1 °F 95% 29.96 in 10.0 mi SE 4.6 mph - 0.09 in Rain Light Rain
8:15 AM 64.6 °F - 63.1 °F 95% 29.96 in 10.0 mi South 10.4 mph - N/A   Clear
8:35 AM 64.8 °F - 63.5 °F 96% 29.97 in 10.0 mi South 6.9 mph - N/A   Clear
8:55 AM 65.3 °F - 63.7 °F 94% 29.97 in 10.0 mi Calm Calm - N/A   Clear
9:35 AM 66.4 °F - 64.6 °F 94% 29.98 in 10.0 mi Calm Calm - N/A   Clear
9:55 AM 67.8 °F - 65.3 °F 92% 29.98 in 10.0 mi SSW 4.6 mph - N/A   Clear
10:15 AM 68.5 °F - 66.2 °F 92% 29.97 in 10.0 mi SW 4.6 mph - N/A   Clear
10:35 AM 69.6 °F - 66.4 °F 89% 29.97 in 10.0 mi SSW 5.8 mph - N/A   Clear
10:55 AM 71.2 °F - 66.6 °F 85% 29.98 in 10.0 mi SSW 10.4 mph - N/A   Clear
11:15 AM 72.5 °F - 66.7 °F 82% 29.99 in 10.0 mi SSW 8.1 mph - N/A   Clear
11:35 AM 73.4 °F - 66.7 °F 80% 29.98 in 10.0 mi SSW 8.1 mph - N/A   Scattered Clouds
11:55 AM 74.3 °F - 66.6 °F 77% 29.98 in 10.0 mi SSW 6.9 mph - N/A   Clear
12:15 PM 76.3 °F - 66.9 °F 73% 29.98 in 10.0 mi SSW 8.1 mph - N/A   Scattered Clouds
12:35 PM 76.1 °F - 66.9 °F 73% 29.98 in 10.0 mi SSW 9.2 mph - N/A   Scattered Clouds
12:55 PM 77.5 °F - 68.0 °F 72% 29.98 in 10.0 mi SSW 6.9 mph - N/A   Clear
1:15 PM 77.9 °F - 67.5 °F 70% 29.97 in 10.0 mi SSW 5.8 mph - N/A   Clear
1:35 PM 78.1 °F - 67.3 °F 69% 29.97 in 10.0 mi SW 11.5 mph 17.3 mph N/A   Clear
1:55 PM 79.5 °F - 68.0 °F 68% 29.97 in 10.0 mi SW 10.4 mph - N/A   Scattered Clouds
2:15 PM 79.0 °F - 68.0 °F 69% 29.97 in 10.0 mi SSW 11.5 mph - N/A   Scattered Clouds
2:35 PM 79.0 °F - 68.4 °F 70% 29.96 in 10.0 mi WSW 6.9 mph - N/A   Mostly Cloudy
2:55 PM 79.7 °F - 68.9 °F 69% 29.96 in 10.0 mi SW 10.4 mph - N/A   Scattered Clouds
3:15 PM 80.2 °F 83.1 °F 68.7 °F 68% 29.94 in 10.0 mi West 8.1 mph - N/A   Scattered Clouds
3:35 PM 81.7 °F 85.1 °F 69.4 °F 66% 29.94 in 10.0 mi West 6.9 mph - N/A   Clear
3:55 PM 81.9 °F 85.6 °F 69.8 °F 67% 29.94 in 10.0 mi SSW 8.1 mph - N/A   Scattered Clouds
4:15 PM 82.0 °F 85.7 °F 69.8 °F 66% 29.95 in 10.0 mi SSW 8.1 mph - N/A   Clear
4:35 PM 82.6 °F 86.1 °F 69.1 °F 64% 29.96 in 10.0 mi SSW 10.4 mph - N/A   Scattered Clouds
4:55 PM 83.3 °F 86.9 °F 68.9 °F 62% 29.97 in 10.0 mi SSW 10.4 mph 16.1 mph N/A   Scattered Clouds
5:15 PM 83.1 °F 86.6 °F 68.9 °F 62% 29.97 in 10.0 mi SSW 8.1 mph - N/A   Scattered Clouds
5:35 PM 83.1 °F 86.8 °F 69.3 °F 63% 29.96 in 10.0 mi SSW 8.1 mph - N/A   Clear
5:55 PM 82.8 °F 86.2 °F 68.9 °F 63% 29.96 in 10.0 mi SSW 6.9 mph 16.1 mph N/A   Scattered Clouds
6:15 PM 82.4 °F 86.3 °F 70.0 °F 66% 29.96 in 10.0 mi SSW 8.1 mph - N/A   Scattered Clouds
6:35 PM 81.5 °F 85.3 °F 70.5 °F 69% 29.96 in 10.0 mi SSW 9.2 mph - N/A   Scattered Clouds
6:55 PM 80.8 °F 84.4 °F 70.7 °F 71% 29.95 in 10.0 mi SW 6.9 mph - N/A   Clear
7:15 PM 79.9 °F - 70.9 °F 74% 29.96 in 10.0 mi WSW 5.8 mph - N/A   Clear
7:35 PM 79.2 °F - 71.2 °F 77% 29.96 in 10.0 mi SW 4.6 mph - N/A   Clear
7:55 PM 77.4 °F - 71.2 °F 81% 29.96 in 10.0 mi WSW 3.5 mph - N/A   Clear
8:15 PM 76.3 °F - 70.9 °F 83% 29.97 in 10.0 mi Calm Calm - N/A   Clear
8:35 PM 74.3 °F - 70.0 °F 86% 29.97 in 10.0 mi SW 4.6 mph - N/A   Clear
8:55 PM 74.5 °F - 69.8 °F 85% 29.97 in 10.0 mi SW 4.6 mph - N/A   Clear
9:15 PM 75.6 °F - 69.1 °F 80% 29.98 in 10.0 mi WSW 3.5 mph - N/A   Clear
9:35 PM 74.8 °F - 68.9 °F 82% 29.98 in 10.0 mi WSW 3.5 mph - N/A   Clear
9:55 PM 73.4 °F - 68.5 °F 85% 29.98 in 10.0 mi WSW 3.5 mph - N/A   Clear
10:15 PM 72.1 °F - 68.2 °F 87% 29.99 in 10.0 mi Calm Calm - N/A   Clear
10:35 PM 72.5 °F - 68.0 °F 86% 29.98 in 10.0 mi WSW 3.5 mph - N/A   Clear
10:55 PM 71.4 °F - 67.8 °F 88% 29.98 in 10.0 mi Calm Calm - N/A   Clear
11:15 PM 71.1 °F - 66.7 °F 86% 29.98 in 10.0 mi West 3.5 mph - N/A   Clear
11:35 PM 70.9 °F - 64.2 °F 79% 30.00 in 10.0 mi West 6.9 mph - N/A   Clear
11:55 PM 69.8 °F - 62.2 °F 77% 30.01 in 10.0 mi WNW 5.8 mph - N/A   Clear